Wind_Gust
15 18 16 18 20 20 19 20 16 26 26 25 26 24 30 24 21 16 13 11 14 15 22 12 9 11 15 19 22 19 17 23 22 17 11 15 12 18 17 26 30 26 24 24 22 25 25 19 20 19 20 21 22 22 22 24 24 24 24 23 23 22 21 22 22 21 21 20 20 18 19 18 17 17 16 16 14 14 15 16 15 15 16 16 16 16 15 16 17 18 19 19 18 17 16 15 15
21 18 17 17 20 20 21 21 27 19 25 22 28 27 27 19 12 13 19 10 16 15 16 14 14 12 13 16 18 15 14 28 24 24 20 14 14 17 20 22 24 25 24 24 22 23 24 24 19 19 20 21 22 22 23 23 23 23 24 24 24 22 21 21 21 20 20 19 19 18 18 17 17 17 16 15 13 14 15 14 15 16 17 15 15 14 14 15 15 17 18 18 18 17 16 14 14
20 18 18 17 20 22 21 23 23 21 23 25 27 31 15 11 10 12 19 22 15 13 7 11 12 16 17 17 18 17 17 16 22 20 18 15 18 16 20 24 24 24 24 24 23 23 24 23 18 20 20 21 22 22 21 23 23 24 25 24 23 23 23 22 21 20 19 18 19 18 16 16 17 17 16 15 16 16 13 12 14 17 16 14 13 13 13 13 13 15 16 17 18 18 16 14 12
21 22 23 18 20 21 22 20 24 24 24 22 23 18 10 14 26 15 12 15 9 11 13 17 16 20 16 16 14 10 24 18 15 14 21 17 15 19 21 24 23 25 23 26 23 23 22 23 19 20 21 21 22 21 22 22 23 24 24 23 24 24 23 21 21 20 19 18 18 18 16 16 17 17 16 17 16 14 9 11 12 15 15 12 12 12 12 11 11 12 13 15 16 17 17 15 13
20 21 20 21 22 22 23 22 23 25 25 23 18 17 18 13 12 11 10 9 12 14 15 18 21 15 11 19 15 15 15 17 13 11 18 14 18 21 21 21 24 25 24 25 23 23 23 22 19 20 21 21 21 21 22 23 23 24 24 25 25 23 22 22 21 20 19 19 19 17 16 15 16 16 16 17 15 11 11 12 11 13 13 11 9 10 9 8 10 11 11 13 15 16 16 15 13
21 22 18 20 24 23 24 23 23 25 24 26 27 19 11 18 17 14 11 12 8 8 13 15 22 15 15 21 23 21 14 9 9 14 17 13 17 20 22 22 22 23 23 24 23 21 24 20 20 20 20 21 21 21 21 23 24 24 25 24 24 22 22 21 20 20 19 20 19 18 16 15 15 16 16 16 14 13 13 11 10 12 14 13 10 10 10 9 10 10 10 12 14 14 13 12 12
22 18 21 20 25 24 22 22 23 23 28 25 26 16 18 15 15 11 13 12 11 11 11 17 14 14 19 26 26 21 16 11 12 16 9 14 18 20 20 22 21 19 24 23 24 22 25 17 19 19 20 20 21 21 22 24 24 25 25 25 23 23 22 21 18 18 19 19 19 17 16 16 16 16 16 16 16 15 13 10 11 11 11 11 11 10 10 11 9 11 12 11 11 10 9 9 9
21 25 18 21 21 22 23 23 25 24 17 12 11 14 20 17 9 9 12 10 14 17 18 14 13 16 15 12 17 17 13 13 14 14 15 17 18 19 18 19 20 20 25 24 20 24 23 16 17 18 19 19 21 23 24 24 24 22 25 23 22 22 22 21 19 17 17 18 18 17 16 15 17 18 18 17 16 15 14 12 13 13 12 12 10 9 10 10 11 11 10 9 8 9 8 8 8
21 22 18 23 23 24 21 23 24 23 23 16 13 16 6 9 13 17 14 12 14 16 18 12 13 15 14 23 23 17 19 17 18 14 14 17 18 15 17 17 19 22 25 23 22 26 23 15 16 18 18 19 20 22 23 23 22 22 24 22 21 21 20 20 20 17 16 16 16 17 18 18 19 18 16 16 17 14 14 14 13 13 13 12 11 10 10 10 11 10 9 9 8 8 8 8 8
22 22 20 23 20 23 23 23 22 23 29 14 14 17 12 13 13 13 15 15 19 11 11 8 9 16 16 25 24 14 17 13 13 13 16 16 17 14 14 15 17 22 24 23 21 25 21 19 15 17 17 19 19 20 20 20 21 21 22 21 19 19 19 18 16 16 16 15 14 15 17 17 17 18 18 18 17 15 15 14 13 13 12 12 12 11 11 11 10 9 9 9 9 9 9 8 8
24 24 19 23 21 23 22 21 23 20 20 12 9 15 11 12 8 15 11 15 16 16 18 9 16 16 16 22 23 15 12 15 14 14 16 21 22 23 22 24 27 21 25 19 21 24 23 22 20 15 17 17 18 19 19 20 19 20 19 19 18 18 18 16 15 15 15 14 14 16 16 16 18 18 17 17 17 16 14 14 13 13 13 12 12 11 11 10 9 9 10 9 9 9 9 10 8
22 22 21 22 21 21 21 22 20 18 12 14 13 13 14 12 11 16 13 13 16 16 18 15 20 11 19 21 17 13 12 13 14 24 27 28 23 24 24 22 19 20 19 14 22 22 22 22 22 19 15 15 16 17 18 17 17 17 17 17 17 17 16 16 17 18 18 14 14 15 15 16 17 16 15 15 16 16 15 14 14 14 14 13 12 11 10 10 9 10 9 9 9 9 10 10 9
24 19 21 22 23 22 21 23 20 19 10 10 15 18 11 12 10 11 16 13 15 14 21 15 14 10 17 17 13 11 12 12 24 28 26 23 16 19 22 20 21 18 20 15 20 20 20 19 21 21 16 13 11 12 14 15 15 15 16 16 17 17 18 19 19 19 16 15 13 14 16 16 16 16 16 15 15 15 15 14 14 14 14 13 12 11 10 10 10 10 9 9 9 9 9 9 8
25 22 19 24 20 24 24 22 21 14 17 21 19 13 9 18 12 12 16 16 16 15 15 20 13 31 21 20 13 13 17 16 24 22 19 18 19 19 17 13 18 13 13 15 24 25 20 18 17 17 18 15 15 13 12 13 13 14 15 16 16 17 18 18 18 17 16 15 13 14 17 17 16 16 15 15 15 14 14 14 14 14 14 13 12 10 10 10 11 10 9 9 10 9 9 8 8
25 19 20 22 24 22 19 24 18 16 14 18 18 9 10 9 11 9 15 13 14 15 18 13 21 18 13 10 12 14 19 18 21 21 22 18 17 19 17 15 15 14 11 19 21 22 21 20 21 13 12 10 12 11 13 17 14 13 14 15 15 17 17 19 19 18 17 15 15 17 18 19 17 16 16 15 13 14 16 16 14 13 13 13 11 11 11 10 11 10 10 9 8 9 8 8 7
21 21 22 21 22 22 21 20 20 17 20 13 11 17 14 9 10 16 13 14 22 10 9 17 29 20 14 13 11 20 20 21 21 24 23 18 17 20 16 16 16 16 14 9 16 17 22 23 22 19 19 16 11 12 12 14 13 13 15 16 17 19 19 19 19 18 17 17 18 18 17 20 18 18 18 19 15 14 15 15 15 14 13 12 11 11 10 10 10 10 8 8 10 9 8 8 7
18 20 20 21 23 22 19 18 13 23 20 18 9 15 13 13 16 15 10 16 18 13 13 25 25 20 18 16 13 18 20 23 22 22 20 16 16 18 16 13 14 14 15 12 13 13 20 24 24 21 20 14 15 12 13 13 16 15 15 16 17 19 18 19 18 18 16 17 19 16 14 18 16 17 19 18 18 19 11 14 16 15 14 13 11 10 9 9 10 9 8 7 7 10 8 6 5
18 22 22 22 22 23 16 20 25 12 17 13 11 14 12 14 15 13 12 21 14 12 18 25 23 22 16 15 12 16 19 20 19 18 18 17 17 18 16 15 16 18 17 16 14 14 20 22 26 28 25 18 15 17 15 13 15 14 14 17 18 20 19 18 20 20 17 19 15 19 17 15 14 15 15 16 17 19 19 15 14 15 13 12 11 9 8 9 9 7 8 7 8 8 10 10 8
22 21 23 25 22 14 13 20 13 13 22 10 10 8 10 14 11 16 22 15 10 16 27 23 22 18 15 10 13 13 14 15 17 15 16 16 17 18 19 18 16 18 19 19 16 15 14 16 21 26 27 28 24 19 18 15 13 11 14 15 16 15 18 19 18 17 17 17 18 17 11 9 12 13 15 18 15 15 19 15 16 14 12 10 9 8 8 8 7 6 7 7 6 8 11 8 7
22 23 24 24 25 16 12 11 15 15 13 11 12 10 8 13 15 13 18 14 11 20 25 21 19 15 13 14 13 13 15 16 14 15 15 15 16 17 18 19 18 17 19 20 21 19 18 17 18 22 25 25 24 23 19 17 14 11 11 12 13 14 15 15 14 14 14 15 16 11 10 11 10 7 13 17 15 18 19 13 15 14 12 10 10 8 8 6 6 4 4 5 4 8 11 10 11
20 27 27 27 19 18 12 15 13 11 11 15 10 12 16 16 15 16 15 17 19 12 21 13 18 18 12 12 13 14 16 15 16 13 15 15 15 15 15 16 19 17 20 20 21 22 24 23 19 19 25 24 24 24 22 19 15 14 14 13 12 14 17 12 14 11 11 12 13 8 13 12 11 9 12 15 13 17 18 18 18 16 13 12 10 11 11 12 8 9 8 7 8 9 11 6 4
17 23 24 27 27 12 15 10 15 11 12 14 16 15 19 16 14 20 17 21 16 20 15 22 21 20 17 11 13 13 14 15 17 17 16 14 15 15 15 16 14 17 20 19 21 24 24 23 17 18 18 22 23 22 21 20 16 13 12 10 12 12 11 12 10 7 11 12 10 10 10 8 8 11 11 14 14 15 18 18 18 16 16 13 14 13 13 12 12 12 10 11 10 11 11 4 5
25 19 23 23 19 19 13 11 9 10 15 14 14 14 15 11 17 15 16 19 15 15 17 16 19 20 19 17 14 13 15 15 15 16 16 17 15 13 15 16 18 19 20 18 20 21 20 19 12 15 20 22 21 20 21 19 15 10 7 9 11 14 13 10 12 9 6 7 8 8 10 10 10 12 14 12 11 12 15 16 18 17 16 16 15 14 13 12 13 10 10 11 12 10 4 5 7
23 26 17 20 21 21 20 11 11 12 11 17 16 15 15 17 17 16 14 14 15 16 13 22 20 16 17 16 15 15 15 14 15 15 18 16 15 15 16 14 13 13 16 20 20 20 20 16 12 16 13 15 20 20 20 18 11 9 7 9 20 19 11 13 12 11 8 8 8 6 6 9 12 12 13 13 16 14 15 14 16 16 17 14 16 15 15 12 12 12 11 8 5 4 9 9 8
25 28 20 22 12 15 16 15 15 15 15 14 16 18 18 18 19 18 13 18 12 10 9 22 18 18 13 14 14 13 13 13 13 14 13 14 11 11 13 13 10 12 14 21 21 19 19 19 16 15 15 16 16 19 18 18 15 11 10 14 16 14 11 11 11 12 8 8 5 4 8 8 8 9 12 15 14 13 11 11 9 8 10 12 14 10 11 10 10 5 5 4 5 7 9 9 6
26 23 19 19 19 15 16 15 14 16 18 14 16 18 18 18 16 22 18 26 11 8 7 15 20 15 12 11 11 9 11 13 13 13 12 9 12 14 14 13 12 11 14 20 21 21 21 21 22 19 16 19 20 16 16 15 15 13 12 13 13 13 14 9 11 11 8 7 7 7 8 9 7 9 10 11 11 7 5 6 6 5 6 5 8 8 6 5 6 7 5 5 9 5 4 7 5
12 18 21 21 20 19 16 19 17 15 17 16 18 18 19 16 17 22 23 20 13 10 19 24 15 18 10 11 10 10 9 13 13 12 11 10 13 11 12 14 15 12 15 18 20 16 17 21 23 24 19 18 17 16 16 15 15 16 16 13 13 10 13 12 10 10 9 10 7 5 5 14 12 10 8 5 6 8 9 7 5 8 9 5 6 8 6 6 6 5 6 4 3 8 6 6 6
18 17 17 17 19 21 20 15 16 15 20 19 19 20 19 20 21 23 23 18 13 12 18 18 16 17 19 15 18 18 14 13 15 11 11 12 13 11 11 12 12 14 18 19 17 17 19 18 19 18 16 13 16 15 18 17 17 17 12 14 14 12 12 12 10 9 8 9 8 6 7 12 8 15 9 8 9 7 8 7 6 6 5 7 6 8 6 5 6 7 3 5 5 7 5 5 13
19 14 19 19 20 28 22 25 21 18 22 14 14 18 22 22 23 22 28 18 14 15 21 18 15 15 18 20 20 18 15 15 14 12 11 10 11 10 12 12 17 16 18 19 17 18 20 19 19 21 15 14 19 16 14 14 14 15 15 13 14 15 13 12 12 9 10 11 11 9 11 11 11 10 9 10 9 12 6 9 8 6 6 4 5 7 7 6 6 3 5 8 7 6 6 7 21
17 17 21 22 23 26 25 24 20 18 20 16 10 20 20 27 26 28 29 20 16 14 15 17 18 17 18 16 15 16 16 18 16 12 8 7 9 11 12 12 18 18 21 20 21 24 14 13 15 12 11 11 11 14 14 14 12 13 14 13 14 14 15 11 10 10 9 10 12 14 9 9 10 10 11 14 16 20 18 9 9 6 5 6 4 5 7 5 7 9 8 7 7 4 5 8 21
23 19 20 22 23 27 24 28 21 21 18 11 12 22 22 24 31 31 27 20 19 19 22 25 18 17 19 15 14 15 16 18 13 11 10 9 10 11 11 11 13 16 21 22 24 23 17 15 15 14 11 10 11 14 13 12 11 11 12 12 12 11 15 16 12 9 9 8 9 10 7 6 7 8 9 9 11 11 17 16 15 11 6 4 5 6 4 6 6 6 6 4 4 6 6 9 19
20 22 25 22 24 24 24 23 21 22 17 16 17 23 25 25 26 28 24 21 19 20 23 25 21 18 16 16 17 16 15 12 10 6 13 13 11 12 13 13 14 16 21 25 26 24 23 18 14 11 13 12 12 11 9 10 11 9 8 9 9 9 15 16 17 11 10 7 7 9 8 6 7 7 7 7 7 6 8 10 11 11 5 3 3 4 5 5 7 5 4 6 7 9 14 9 17
22 22 17 24 22 18 19 24 21 20 19 14 21 23 22 19 22 22 21 20 20 18 25 19 18 17 18 18 16 15 17 15 13 9 13 11 11 13 12 14 15 17 20 26 27 25 25 22 19 17 16 17 15 12 10 10 10 10 9 12 14 12 15 17 17 13 10 11 9 7 9 10 9 9 6 5 6 6 4 3 5 9 12 13 9 6 5 3 3 7 7 8 5 9 11 11 10
24 23 23 22 24 20 22 25 20 21 15 18 20 23 24 17 12 19 15 18 18 20 27 26 23 16 15 13 19 20 17 14 13 11 10 9 12 12 12 14 16 18 20 24 24 25 23 22 18 15 15 15 16 15 12 14 13 11 10 11 12 11 14 17 15 13 11 9 8 11 13 11 9 9 7 4 4 6 4 4 6 8 7 7 16 16 5 6 5 3 4 4 8 7 6 9 9
20 21 18 21 23 21 14 26 25 10 19 21 18 20 20 17 19 18 16 18 19 19 17 28 24 18 22 22 22 19 15 13 10 12 10 9 11 12 13 15 16 18 20 22 21 21 20 17 13 14 15 15 14 16 15 13 11 10 10 10 9 9 12 15 13 10 10 12 11 14 14 13 11 9 10 8 5 6 5 6 4 5 6 6 16 15 8 6 5 6 5 6 8 7 6 5 5
24 21 22 19 20 23 26 14 26 15 17 18 20 21 18 21 20 23 24 17 15 16 15 24 21 20 19 21 16 19 13 12 9 9 9 9 8 12 13 14 16 18 19 20 20 21 21 18 15 16 14 15 14 13 15 16 15 14 13 11 11 10 10 9 12 11 9 10 13 12 13 11 10 9 9 8 8 8 7 4 5 6 5 5 19 11 16 6 5 5 5 6 9 10 6 4 5
28 27 19 26 29 25 22 21 21 12 13 14 16 16 20 20 20 21 23 20 16 15 19 29 23 22 20 19 17 17 17 11 10 10 10 9 8 10 11 13 15 17 18 20 20 20 22 23 20 17 16 14 12 13 13 14 16 14 12 13 10 10 10 11 11 14 13 12 13 14 14 14 13 11 12 11 10 9 6 6 7 8 7 8 17 11 14 7 5 6 6 4 6 7 6 6 7
21 22 18 18 13 18 21 16 28 27 14 15 16 19 21 21 21 21 23 21 21 17 19 23 25 27 29 31 34 24 15 11 9 7 9 13 17 18 22 14 13 17 18 17 15 18 19 19 18 16 13 13 12 12 10 10 10 12 12 11 11 12 11 11 13 10 11 13 13 13 12 10 12 12 11 12 12 11 9 10 9 8 8 11 14 14 12 6 7 5 6 6 4 6 6 5 5
15 21 19 18 20 18 19 27 17 18 16 16 19 21 21 20 23 22 25 25 17 17 18 22 21 26 25 31 28 25 19 15 12 8 9 14 21 21 20 20 20 14 14 18 16 18 18 17 17 19 18 15 14 12 11 12 9 9 9 6 10 12 10 10 10 9 10 10 11 13 12 10 10 11 11 10 11 10 10 9 11 8 7 12 10 17 12 7 3 6 7 5 7 7 8 7 5
16 22 24 22 20 19 24 16 22 16 23 18 16 22 22 22 22 24 22 28 27 21 22 23 24 25 24 27 27 23 22 19 15 14 9 9 12 13 18 20 20 17 16 15 15 17 16 17 20 20 21 19 16 14 11 8 8 7 11 9 12 9 12 9 10 8 8 10 11 14 15 14 15 12 11 11 9 10 9 10 9 10 18 14 13 16 8 8 6 5 5 7 5 8 12 7 8
20 22 23 25 23 23 24 17 10 12 14 12 19 25 27 21 22 23 20 23 29 28 21 24 25 26 23 25 29 28 24 26 24 19 14 14 16 15 15 17 15 14 14 14 16 19 19 20 22 21 19 16 14 12 13 12 13 13 11 15 14 12 11 11 10 10 9 7 10 12 16 16 13 9 9 9 8 9 8 8 6 9 12 15 16 7 7 7 10 9 8 6 6 6 7 5 7
21 21 24 24 22 22 24 24 22 23 20 22 21 26 29 23 26 29 26 26 28 27 22 22 22 24 23 23 27 28 23 27 30 30 30 29 20 15 13 19 18 16 16 16 20 21 20 20 19 18 18 14 17 14 16 16 15 14 16 15 17 16 14 11 11 12 10 10 9 8 12 13 9 7 7 10 10 9 9 7 16 19 11 9 8 9 9 9 7 7 8 6 9 7 7 5 8
22 24 25 25 26 26 25 26 23 21 24 17 21 27 27 20 26 28 30 27 25 24 22 20 21 21 23 24 24 24 24 28 29 28 28 26 22 16 12 16 17 20 18 14 12 13 17 17 17 16 18 16 17 14 14 15 16 12 14 14 12 13 14 11 10 11 12 9 7 8 7 6 7 10 7 10 10 12 15 23 19 16 13 9 9 8 8 7 8 8 6 7 7 7 5 6 7
30 18 19 25 31 31 26 23 21 25 20 24 24 26 25 22 23 18 19 24 26 28 27 23 22 21 21 18 25 23 24 22 29 26 26 26 23 19 19 16 17 21 20 13 13 13 18 18 18 17 18 20 16 15 13 14 15 11 10 10 10 10 13 13 12 11 9 8 8 7 7 5 9 15 21 23 26 22 15 17 16 10 10 12 11 9 8 6 3 9 5 7 6 7 5 6 5
23 22 26 25 22 19 18 23 24 23 23 27 25 25 31 27 22 22 21 19 18 20 21 20 21 21 19 17 33 26 23 21 24 22 22 24 23 20 18 16 16 20 17 13 14 17 13 19 18 16 17 18 15 14 14 14 12 14 15 14 13 11 12 13 12 10 9 9 9 7 7 6 16 17 22 24 20 17 15 16 10 9 7 7 8 5 6 9 5 6 7 8 8 7 6 7 5
23 25 13 18 14 19 20 22 23 23 24 27 25 23 30 25 17 20 18 21 21 23 24 22 19 18 15 12 27 17 18 13 16 16 18 19 19 19 17 17 16 18 16 16 14 18 18 18 19 17 18 17 13 15 16 15 13 13 14 15 14 13 13 14 12 13 12 11 10 8 9 18 22 16 13 18 14 13 12 10 10 9 8 10 9 9 6 10 6 6 6 6 6 7 7 6 5
16 22 22 22 21 21 22 22 25 23 28 30 23 24 26 29 17 16 12 15 19 21 11 11 10 8 11 16 26 24 21 16 16 14 14 16 18 20 19 19 17 21 18 18 18 21 23 20 22 21 19 16 16 15 16 16 16 15 14 14 16 15 15 16 15 14 13 13 14 13 20 19 20 15 9 8 8 11 10 8 9 10 8 5 11 11 11 12 8 6 7 7 6 7 7 6 5
21 18 17 15 20 22 24 24 22 27 31 23 24 26 22 30 21 13 13 14 15 13 11 12 14 17 14 14 20 20 24 22 18 17 17 18 18 23 23 19 20 20 19 24 22 22 22 24 24 23 19 18 18 17 16 19 17 16 13 16 16 15 15 18 17 18 17 16 15 19 18 21 20 12 9 8 7 8 8 8 7 9 8 6 9 7 10 14 12 9 8 9 8 6 5 6 5
23 21 21 23 24 21 25 25 26 28 29 21 23 22 25 31 14 18 17 13 13 11 11 10 13 17 13 12 15 16 13 9 19 18 15 17 18 20 24 27 23 21 20 24 26 23 21 23 22 22 20 21 22 19 18 19 17 16 16 15 15 14 14 16 15 17 15 16 16 17 20 17 12 12 10 11 10 8 8 6 7 6 7 4 5 6 4 5 10 10 7 6 7 9 6 6 6
23 25 23 24 26 23 20 21 21 25 27 23 25 17 29 20 18 14 16 13 10 9 7 9 9 12 14 14 19 16 14 15 12 13 15 18 17 18 21 27 27 26 29 28 25 21 19 20 22 22 23 24 23 23 21 21 18 16 16 15 14 14 13 13 14 14 14 14 16 14 14 14 14 12 13 11 12 11 8 7 5 7 6 7 6 5 4 4 4 8 7 4 5 4 5 5 5
26 22 27 24 26 27 19 23 23 22 20 19 19 26 27 24 14 11 12 10 10 9 11 11 10 8 6 7 14 19 12 11 11 11 10 14 18 18 20 25 28 30 32 31 25 23 21 22 24 21 23 24 24 26 22 22 20 20 18 17 16 13 11 9 10 11 13 14 10 12 10 12 12 11 9 10 8 9 8 7 7 6 7 6 5 4 6 5 5 6 9 8 7 4 6 5 7
25 26 25 28 28 18 25 13 18 18 16 14 13 22 17 18 19 14 9 11 11 11 9 8 9 9 8 7 9 12 17 16 17 16 17 21 24 21 20 22 22 23 24 24 23 20 18 19 22 23 22 22 22 22 22 22 22 22 19 18 16 13 10 9 8 9 11 10 10 10 9 8 8 8 9 10 9 10 8 9 8 8 7 6 5 5 6 6 3 10 9 6 7 9 6 7 6
22 27 30 27 18 23 17 17 21 7 15 24 13 12 20 18 15 11 11 10 13 11 12 12 9 7 7 7 9 9 13 19 19 21 23 25 21 18 20 18 20 21 23 23 22 19 19 20 22 24 20 15 20 18 20 19 18 19 19 18 15 14 15 14 12 11 9 10 10 9 10 8 9 10 11 9 9 9 9 7 9 8 6 5 5 4 5 6 5 9 7 6 8 6 6 9 5
19 25 23 20 22 23 22 20 15 22 25 21 21 21 19 20 16 12 9 11 9 11 11 12 10 14 13 16 20 21 17 15 16 19 18 19 21 23 22 20 18 21 21 20 21 17 16 17 20 21 19 15 15 18 19 16 18 18 18 18 13 13 12 11 9 9 10 11 11 12 12 11 9 9 10 9 8 9 8 9 9 8 6 6 5 4 8 6 5 8 7 7 7 6 6 5 4
28 22 11 28 22 22 22 20 20 20 21 20 24 25 15 11 12 12 10 10 9 12 11 11 13 14 16 18 20 21 22 21 21 19 24 19 18 22 23 23 17 19 18 21 22 20 20 15 19 18 17 13 13 18 11 13 16 13 13 14 13 10 7 9 10 11 10 12 13 12 11 11 10 10 9 7 9 10 8 8 8 9 8 7 6 5 6 4 6 6 4 8 6 5 5 4 4
27 23 25 18 21 16 20 25 21 22 20 17 17 25 11 13 13 9 13 10 10 14 13 9 13 15 16 12 14 13 17 18 18 16 18 20 22 25 24 24 27 23 17 18 11 10 14 19 19 17 14 14 13 13 8 8 10 12 11 12 8 9 11 12 11 11 12 12 14 13 12 10 10 10 9 9 10 11 9 9 10 10 8 8 8 7 6 6 6 4 6 6 3 4 6 4 6
31 31 29 23 25 12 15 10 21 22 21 21 16 17 12 9 12 10 11 13 13 14 11 12 13 16 17 17 17 16 18 19 21 21 19 19 17 18 20 25 23 20 15 12 14 17 18 13 10 8 12 14 12 10 10 9 10 13 12 10 8 4 7 14 12 13 13 14 14 13 12 10 11 10 10 10 10 11 11 9 11 11 12 8 9 6 5 5 6 4 4 6 5 4 6 5 5
25 29 29 26 22 23 23 21 23 30 26 17 15 13 13 12 14 8 10 15 14 13 11 11 14 15 16 17 16 17 17 17 18 17 15 15 15 15 13 13 15 17 16 18 18 13 9 9 8 11 13 14 8 8 15 14 12 18 11 12 8 12 14 11 13 14 14 14 15 14 11 10 9 11 11 11 13 9 9 9 10 12 10 11 10 8 6 5 6 3 6 4 3 3 3 7 4
Wind_Speed
8 8 7 9 8 9 7 7 6 7 7 10 11 10 10 14 10 7 7 4 1 8 11 6 5 4 6 8 12 10 10 10 9 5 4 4 6 10 8 18 17 16 15 12 12 14 15 15 16 16 16 17 18 17 18 19 20 19 18 17 17 17 17 18 18 17 17 16 16 15 15 15 14 14 13 13 12 12 13 12 11 12 12 13 12 12 11 13 14 14 15 15 13 12 11 11 11
8 8 9 8 8 7 6 8 6 6 8 9 12 13 14 6 7 7 9 5 8 5 8 7 5 4 6 8 9 8 2 15 13 10 8 6 6 9 11 15 16 16 14 12 11 12 15 14 15 16 16 17 17 18 18 19 19 18 19 18 17 17 16 17 17 16 16 16 16 15 15 15 14 14 13 12 11 12 12 10 11 13 12 11 12 11 11 12 12 13 14 14 14 12 11 10 10
9 8 8 8 7 8 8 7 8 8 9 10 11 13 5 2 3 7 12 14 8 7 3 4 6 7 9 9 8 9 8 9 12 12 7 9 9 7 14 12 14 16 15 11 11 11 12 14 15 16 17 17 17 18 17 18 18 19 19 18 18 17 17 17 16 16 15 15 15 15 13 14 14 14 13 12 13 13 10 9 11 13 12 10 10 10 10 9 10 11 13 13 13 13 11 10 9
10 10 9 7 6 7 6 5 9 9 9 9 9 7 1 7 15 8 5 9 3 6 4 7 5 9 7 8 2 6 10 8 8 7 7 7 6 9 12 15 14 13 12 10 11 11 11 14 15 16 16 17 17 17 18 18 19 19 19 18 18 18 18 17 16 15 14 14 15 14 13 13 14 14 13 14 13 10 7 9 9 12 11 9 10 9 9 8 9 9 10 12 12 13 12 11 9
9 9 9 8 8 7 7 7 8 8 11 9 7 8 8 4 6 6 5 5 4 5 6 8 7 7 4 10 7 3 7 10 7 6 6 7 10 9 10 14 14 13 12 13 11 12 12 17 15 15 16 17 16 17 17 17 18 19 19 19 19 18 18 17 16 15 14 14 14 13 13 13 13 13 13 14 11 8 8 9 9 10 10 9 8 8 7 7 8 8 9 10 12 12 12 11 10
9 9 9 7 6 6 6 8 9 11 11 12 12 5 6 10 10 7 5 6 1 3 5 7 9 7 3 10 8 7 7 3 0 8 6 6 10 11 12 10 13 12 13 11 11 11 13 15 15 16 16 16 16 17 16 17 18 18 19 19 18 17 17 16 15 15 15 15 14 13 13 13 12 13 13 13 11 10 9 8 9 10 10 9 8 8 7 7 8 7 8 9 11 10 10 9 9
7 7 6 7 8 7 8 8 9 10 13 14 11 4 9 7 7 4 4 5 3 4 5 7 7 6 5 8 13 9 6 6 1 6 4 8 11 11 12 9 8 12 11 12 12 12 15 13 14 15 15 15 16 16 16 18 18 18 19 19 18 18 17 16 14 15 15 15 14 13 13 13 13 13 13 12 11 11 9 8 9 9 9 9 8 7 7 8 7 9 9 8 8 7 7 7 7
9 9 5 7 6 6 9 9 11 10 6 4 3 6 10 10 1 1 4 4 5 7 10 5 4 8 3 6 6 5 5 6 8 8 9 9 12 11 9 12 9 12 15 13 12 13 16 13 13 14 15 15 17 17 18 19 19 18 19 18 17 17 17 17 15 14 13 14 15 13 12 12 12 14 13 13 12 11 10 10 10 10 10 9 8 7 8 7 8 9 7 7 6 6 6 6 6
8 8 6 8 9 6 8 9 10 11 12 7 5 10 4 2 7 6 7 6 4 7 10 5 7 4 4 14 9 9 9 11 12 9 7 10 9 8 8 9 9 12 15 13 13 14 13 12 13 14 14 15 16 17 18 18 17 18 19 17 16 15 15 15 15 13 13 12 12 13 13 12 15 14 13 12 12 11 10 11 10 10 10 9 7 8 8 8 8 8 6 6 6 6 6 6 5
7 7 7 6 7 10 9 10 9 10 14 5 7 9 4 6 6 6 6 8 10 5 3 3 2 7 5 14 11 6 7 7 8 8 9 10 8 9 10 8 8 15 14 13 12 13 10 14 12 13 13 14 15 15 15 15 15 16 16 15 14 14 13 13 13 13 12 11 11 12 13 14 14 14 12 13 12 11 11 11 10 10 10 9 9 9 9 9 7 6 7 7 6 7 7 6 5
7 7 7 8 8 9 9 9 11 10 12 6 1 8 6 3 2 6 4 7 9 6 10 2 7 8 4 12 8 6 8 8 9 9 12 16 16 16 14 16 16 13 11 11 12 13 12 11 14 12 12 11 11 12 12 13 13 13 13 13 13 13 13 12 12 12 12 11 10 13 12 13 15 15 14 14 13 12 11 10 10 10 10 10 9 9 9 8 7 7 7 7 7 7 7 7 5
8 8 7 8 8 8 9 10 10 6 5 7 2 6 6 4 1 7 6 4 7 8 9 9 3 5 8 8 6 5 7 8 10 16 15 12 7 12 9 9 13 13 9 7 10 12 11 10 10 12 10 9 9 10 11 11 11 11 12 13 12 12 12 11 12 13 12 9 11 12 12 13 14 13 12 12 12 12 11 11 10 11 10 10 9 8 8 8 7 7 7 7 7 7 8 7 6
9 7 9 8 8 9 10 11 9 10 1 1 6 8 4 4 2 4 8 7 6 7 8 4 4 2 7 6 3 6 8 8 16 13 10 7 8 8 9 8 8 9 12 11 13 13 10 9 9 8 9 11 8 8 8 9 9 10 10 11 12 11 12 12 13 13 11 10 11 11 12 13 13 13 12 12 12 12 11 10 10 11 11 10 9 8 8 8 8 7 7 7 7 7 7 6 4
9 8 7 9 8 10 10 10 10 5 3 10 9 6 2 6 5 3 6 9 9 9 6 10 3 19 10 7 5 6 8 11 13 12 10 12 10 10 9 6 9 8 3 10 15 16 13 11 9 7 7 5 7 6 7 7 8 9 9 10 12 11 12 13 12 12 10 10 10 11 13 14 13 13 12 11 11 10 10 10 10 10 10 10 9 8 8 8 8 8 7 7 7 7 7 5 3
10 7 7 7 9 9 9 9 8 4 2 9 9 3 3 2 1 3 7 6 5 8 9 8 9 4 5 1 4 6 10 12 12 13 13 12 11 11 9 8 9 8 4 9 14 13 13 13 13 8 5 5 5 5 5 7 8 8 8 9 11 12 12 12 13 12 11 10 11 12 14 14 13 12 12 11 9 11 11 11 9 10 11 10 8 8 8 8 8 8 8 7 7 6 6 5 3
8 7 7 7 9 10 8 9 10 8 6 7 2 10 7 4 2 4 5 4 9 2 3 6 13 6 6 7 7 11 13 14 13 14 12 13 11 11 10 10 9 7 5 5 4 9 15 15 14 11 11 10 7 7 7 7 8 9 9 10 12 12 12 12 13 11 11 11 12 13 12 12 12 10 13 10 11 11 12 10 11 10 10 9 8 8 8 8 8 7 7 7 7 7 6 5 3
7 7 7 7 10 10 8 8 5 7 10 9 3 7 6 5 9 7 4 8 10 7 5 13 12 10 10 8 8 8 14 15 14 15 13 9 8 8 7 7 7 7 5 7 8 6 10 15 16 12 14 11 9 8 7 7 8 10 8 10 12 12 11 13 13 12 11 11 12 12 10 8 7 7 9 9 12 9 8 11 12 11 10 10 8 7 7 7 8 6 6 5 5 8 6 5 2
7 7 7 9 9 10 7 8 11 6 8 6 5 7 4 6 7 6 5 9 6 5 11 12 14 13 8 9 8 10 13 13 12 12 11 9 7 8 7 7 8 8 6 6 6 8 8 9 15 17 14 13 11 10 8 7 8 9 7 8 9 9 10 11 10 8 10 8 11 9 6 6 6 6 6 10 7 9 10 12 11 11 9 9 8 7 6 7 7 5 5 5 6 6 8 4 2
8 7 8 11 10 2 5 8 7 5 11 3 3 2 5 6 6 3 10 9 3 3 13 14 11 10 9 6 8 8 9 9 9 9 10 11 9 10 9 8 8 10 8 8 7 7 5 5 7 12 16 17 17 13 9 8 8 6 8 8 8 10 10 10 8 8 7 8 8 7 5 4 5 5 5 8 7 11 10 11 11 10 8 7 7 6 6 5 5 5 5 5 4 5 4 3 4
9 9 9 11 14 8 6 4 4 7 7 5 6 4 2 6 6 6 8 8 6 7 11 10 11 8 8 9 8 8 9 9 8 8 9 9 10 10 10 10 9 10 9 8 10 8 7 8 7 6 8 9 13 12 11 10 8 7 6 6 6 7 8 7 6 6 6 7 7 4 4 4 3 3 9 13 11 7 7 8 10 10 9 7 7 5 5 4 4 3 3 4 3 3 4 4 4
8 10 11 12 5 7 2 7 7 5 4 7 2 5 5 8 7 5 8 9 9 5 5 8 10 8 5 7 9 9 10 9 8 8 8 9 8 7 8 8 8 9 9 9 9 10 10 8 7 7 8 7 10 12 13 11 9 8 7 7 7 6 6 6 5 5 4 6 6 3 5 2 3 3 4 5 6 7 7 6 6 5 5 4 6 3 3 3 2 2 2 3 3 4 5 3 2
6 12 14 15 16 5 9 4 7 5 6 6 9 8 9 8 3 10 9 11 3 4 7 14 12 11 8 7 8 8 9 9 10 8 9 8 9 9 8 7 8 8 10 9 10 12 12 9 8 7 8 7 8 9 11 11 10 8 7 6 6 6 5 4 4 3 2 3 3 1 5 3 3 4 4 6 6 6 7 6 6 5 5 5 6 3 4 4 3 4 3 2 3 3 5 2 3
10 10 13 14 11 9 2 2 1 5 6 8 7 7 7 5 8 8 8 10 6 8 8 10 11 12 8 6 6 6 8 9 9 10 10 8 8 7 8 8 8 9 9 9 9 10 10 10 6 5 7 7 8 8 10 10 8 5 3 5 4 5 4 4 3 3 2 3 3 2 2 3 3 3 4 5 6 5 5 6 7 6 5 5 6 4 4 5 4 4 5 4 3 5 2 1 1
11 10 9 12 13 13 13 5 4 4 4 8 8 8 7 7 9 8 8 7 6 10 8 14 12 10 10 7 5 5 6 7 7 6 7 7 7 7 7 7 7 7 8 11 10 10 9 8 7 8 6 6 6 7 9 9 6 5 3 5 10 5 4 6 2 2 3 2 2 3 2 2 3 4 5 5 5 4 7 7 7 7 7 5 6 5 5 4 5 3 5 5 3 0 1 3 2
12 12 12 13 6 7 9 7 7 8 8 7 8 9 10 10 9 10 7 8 6 5 4 14 10 7 7 8 8 6 5 6 5 5 6 6 5 6 8 6 5 5 8 11 10 10 10 9 9 9 9 8 7 7 8 7 7 6 5 7 9 8 7 7 5 3 3 3 2 2 2 2 2 3 4 5 6 7 6 6 6 6 6 6 7 6 6 5 6 3 3 2 1 2 2 4 3
12 13 11 11 11 9 9 9 7 7 7 6 8 10 10 11 8 11 9 15 6 3 3 9 12 9 6 6 5 4 4 4 5 6 6 5 6 7 7 7 5 6 8 11 11 10 10 11 11 11 10 8 9 8 7 7 6 7 6 6 8 7 5 5 7 4 0 3 3 1 1 2 3 3 4 5 6 5 3 2 3 1 2 3 4 1 1 2 3 2 2 2 3 2 0 2 1
3 10 13 13 12 11 8 11 10 9 8 8 10 10 11 10 8 8 11 13 8 4 12 12 9 8 5 6 4 3 4 4 5 4 4 4 8 6 7 6 8 7 8 11 11 9 9 12 8 12 10 10 8 7 9 9 8 8 7 7 7 5 7 6 6 5 3 3 3 2 0 1 4 6 3 1 2 1 1 3 2 2 3 1 3 3 3 2 3 2 3 2 0 1 2 0 5
9 9 9 9 10 11 12 9 8 6 8 10 11 11 10 11 11 10 13 11 8 7 11 11 9 7 6 2 4 3 3 1 3 3 5 6 5 5 5 6 7 9 10 10 9 9 11 11 10 10 7 3 6 8 9 8 8 8 6 7 7 6 7 6 5 5 4 3 4 3 2 1 1 4 4 4 1 2 4 2 2 3 3 3 2 3 0 2 1 1 2 2 1 3 1 3 9
11 8 8 10 12 12 12 13 12 10 9 8 8 10 11 11 13 13 18 8 8 6 12 6 8 9 11 6 5 4 4 4 5 5 5 5 6 4 6 6 7 8 9 11 8 11 11 11 9 10 8 7 6 7 7 6 6 6 5 5 6 7 6 6 6 5 5 4 6 2 3 1 4 2 3 5 2 5 2 4 4 1 2 3 3 3 2 1 2 1 2 1 1 2 2 4 11
10 9 9 10 12 13 15 13 12 11 9 10 5 7 8 12 15 15 17 8 8 7 9 7 10 7 10 8 6 7 7 9 9 6 4 2 5 6 5 8 11 9 10 8 10 10 6 7 6 6 6 5 4 3 5 5 6 6 5 4 5 6 5 5 5 5 5 4 5 3 4 5 4 1 3 6 6 4 7 3 2 2 1 4 2 2 2 1 2 3 3 3 4 2 2 4 11
9 10 9 8 9 11 13 13 13 12 9 5 5 8 9 12 15 16 17 13 10 10 13 13 9 9 8 8 8 7 9 11 6 5 5 5 6 5 6 5 8 10 10 10 12 13 10 9 7 6 6 6 5 4 5 5 5 6 6 5 5 5 6 5 4 5 5 5 5 5 4 4 2 3 4 4 4 4 4 2 7 6 3 1 1 1 0 2 2 2 2 1 1 4 1 3 11
8 8 9 9 11 11 13 14 13 11 8 9 8 8 11 14 14 17 15 12 11 10 14 16 12 10 9 7 7 7 6 6 5 3 7 7 5 6 5 6 6 11 13 13 14 11 9 8 8 5 6 7 6 6 4 5 5 4 4 4 4 4 7 3 3 5 4 4 4 4 4 4 3 2 2 2 2 3 3 2 4 4 1 1 0 1 1 1 3 0 1 2 1 3 4 2 6
9 9 8 10 10 7 9 13 13 11 7 8 10 9 10 10 5 10 13 10 12 9 14 12 11 10 10 6 6 6 7 7 7 6 8 6 6 6 5 8 7 9 12 12 13 13 13 10 9 8 9 8 8 7 6 5 5 4 4 5 3 3 8 7 3 5 3 2 3 4 5 5 3 2 2 1 2 2 2 0 1 4 3 4 4 3 2 0 1 2 1 2 1 4 5 5 4
9 9 9 10 11 8 8 14 12 12 9 7 11 9 12 9 3 8 8 11 11 8 16 12 13 9 9 3 3 5 7 5 5 5 5 4 6 6 5 8 8 10 13 13 13 12 13 11 10 9 8 7 6 6 6 6 5 4 4 6 6 4 9 8 5 5 6 4 4 4 3 5 4 3 2 2 2 1 1 1 2 3 3 3 2 5 2 3 1 1 1 2 2 3 4 4 0
8 9 7 8 12 13 6 10 13 4 11 9 9 10 10 9 5 6 8 8 9 8 10 17 14 11 12 3 4 12 7 6 4 5 4 5 6 5 6 7 8 10 10 12 11 10 8 7 6 8 8 7 6 6 5 6 5 3 3 3 4 3 6 6 5 5 5 5 4 5 5 4 4 3 4 3 2 3 3 2 2 3 2 1 1 3 4 3 1 0 1 4 3 2 3 2 4
11 11 11 8 8 7 8 5 15 9 9 8 10 10 7 11 9 11 14 10 9 8 5 14 11 9 11 12 10 11 8 6 4 5 3 3 4 6 6 7 8 8 9 9 11 5 9 8 5 5 5 5 5 4 4 3 5 5 5 5 5 5 4 5 4 3 4 6 5 6 6 5 4 4 4 3 2 2 3 1 2 3 2 2 4 5 7 3 1 2 2 2 4 2 1 1 2
9 16 7 8 12 13 13 8 7 6 3 5 6 7 10 10 10 11 10 10 9 8 5 14 13 12 12 10 6 7 2 1 4 5 6 6 5 5 5 6 7 9 11 12 9 12 13 11 9 6 3 5 5 7 7 7 7 7 5 5 5 4 4 5 3 3 3 4 6 7 6 5 5 5 4 5 4 4 3 2 2 2 1 2 4 1 7 5 1 2 1 1 3 4 2 3 2
13 12 10 8 5 6 9 4 18 14 6 3 6 10 11 11 11 12 10 12 13 10 7 14 14 14 11 15 11 10 8 3 2 4 5 8 9 11 13 10 1 9 10 7 8 12 12 12 11 9 7 6 5 5 5 5 4 5 4 4 3 4 5 6 6 5 5 5 6 6 6 5 5 5 4 4 4 4 4 3 2 2 1 1 4 2 7 5 1 2 2 2 0 3 2 2 3
9 9 8 8 6 7 5 14 6 8 5 5 8 12 10 11 12 12 14 15 7 10 8 10 11 16 13 16 17 16 11 9 5 4 3 1 9 9 8 4 12 2 7 10 8 9 11 10 11 11 10 9 8 8 6 4 4 2 1 2 3 5 2 4 5 5 5 6 5 4 3 2 3 5 5 4 4 2 3 3 3 3 4 4 5 5 8 2 1 3 3 2 2 2 2 2 2
5 8 9 8 8 8 7 7 12 8 5 5 6 9 9 13 13 14 13 14 15 11 13 12 12 10 14 16 14 12 14 11 10 8 5 3 3 6 9 9 2 10 4 7 9 10 9 10 12 13 12 11 9 8 7 5 5 5 7 2 7 3 3 4 6 4 5 6 7 6 4 3 4 4 5 5 3 4 4 5 4 4 3 3 4 8 4 3 2 1 2 1 1 4 2 2 2
7 10 10 10 11 11 11 7 2 4 8 5 7 10 11 11 11 9 11 11 15 17 11 12 11 12 13 16 15 15 14 11 10 9 8 8 7 5 7 9 9 1 7 5 8 9 8 12 13 13 11 9 8 7 8 7 7 8 7 9 8 6 2 3 6 5 3 5 6 7 6 6 6 3 3 4 4 4 5 4 4 3 6 6 9 3 2 3 3 3 3 3 2 2 3 1 3
9 13 14 13 13 13 13 12 9 8 7 8 9 8 10 11 15 14 12 9 13 16 13 10 11 12 14 13 19 18 14 13 12 12 10 9 8 7 7 8 10 8 8 7 4 5 6 7 8 8 7 7 7 8 9 8 8 8 8 8 9 7 5 3 4 6 5 4 5 5 8 8 5 2 2 5 4 4 3 3 4 5 5 6 4 4 3 3 4 3 3 2 5 2 3 1 3
10 9 14 15 15 15 16 15 12 8 8 6 11 10 6 7 12 15 16 15 14 13 12 10 10 10 12 9 9 15 15 16 14 13 11 10 8 7 8 7 10 12 10 5 2 4 7 6 8 9 7 5 6 6 8 6 6 5 6 6 7 7 6 4 4 4 4 4 4 5 4 3 4 5 4 4 5 4 5 5 5 6 7 4 4 5 5 4 3 3 2 4 3 3 2 2 2
11 11 10 14 17 17 16 13 9 8 7 11 15 10 9 8 7 9 10 14 16 14 15 14 11 10 11 6 12 14 13 15 17 16 16 14 12 11 12 10 10 12 11 6 5 6 9 11 11 9 7 7 6 6 8 7 6 6 5 6 6 5 6 5 5 5 4 4 4 4 4 3 3 5 5 5 5 6 5 5 8 6 6 5 4 3 2 2 2 4 2 4 2 3 2 3 2
9 11 15 15 13 11 5 7 10 9 10 11 10 14 11 9 9 11 13 12 8 10 13 11 9 10 10 8 15 15 12 13 15 12 14 15 14 12 11 9 9 7 3 4 7 8 7 9 8 8 9 9 7 7 7 7 6 7 7 7 7 5 5 6 5 5 4 4 4 4 3 2 3 4 5 6 8 9 7 8 6 4 2 4 3 2 2 4 2 3 4 4 3 3 2 1 2
11 16 2 5 6 8 8 9 9 9 10 12 11 11 10 9 6 8 7 10 9 10 12 8 7 9 9 4 13 10 8 8 9 10 10 11 12 11 10 9 8 6 6 4 7 8 8 9 9 10 11 8 6 7 6 8 7 7 7 8 9 8 7 7 5 6 6 5 5 4 4 2 1 4 7 11 9 6 8 6 4 4 4 4 4 3 3 4 1 1 3 3 3 4 3 2 2
7 13 11 11 8 6 8 9 9 8 9 13 12 13 12 10 5 6 4 2 9 8 4 5 1 3 7 10 13 7 9 5 4 5 8 10 11 12 12 11 10 7 4 4 8 9 9 9 10 10 10 9 8 8 8 8 8 7 7 8 9 9 9 8 8 6 6 5 5 3 4 3 2 7 6 5 4 6 5 5 4 4 3 3 6 6 6 5 3 3 3 3 2 3 3 2 2
11 6 6 3 6 9 10 9 9 7 10 12 13 13 13 12 6 1 6 8 8 7 6 5 8 10 7 5 10 9 10 8 5 5 7 9 11 14 11 12 10 7 7 9 12 12 11 10 9 11 9 10 11 10 10 9 8 8 8 9 9 8 9 8 9 9 8 8 6 5 4 6 9 6 4 4 4 4 4 4 4 4 3 2 5 4 6 8 7 5 5 4 2 2 2 3 2
10 9 7 8 6 4 7 8 8 9 8 9 13 14 11 12 4 9 8 6 7 5 5 3 1 4 2 7 8 4 6 2 9 3 5 6 8 12 12 11 11 10 9 13 16 13 11 12 13 13 13 13 12 12 11 11 9 9 8 9 8 7 9 9 9 10 9 8 7 8 10 9 7 6 5 5 3 3 3 3 3 4 2 2 3 3 3 2 6 6 4 3 4 4 3 3 3
11 10 9 9 8 7 6 8 5 8 10 13 13 10 11 8 7 7 7 4 4 4 3 5 1 1 5 8 9 4 7 6 5 7 9 10 9 11 13 12 12 12 15 15 15 13 11 11 13 13 14 13 12 11 11 11 10 9 8 9 7 7 6 8 7 7 8 7 8 8 8 7 7 6 6 5 6 4 4 2 3 4 3 3 3 3 2 2 2 4 4 2 3 2 3 3 3
11 9 10 9 9 7 5 7 6 7 7 5 11 10 8 8 4 3 5 5 5 5 6 6 6 2 0 1 7 7 6 2 4 3 5 8 11 12 12 14 15 16 19 19 15 14 12 11 12 13 14 13 12 12 10 11 8 9 8 7 7 6 5 5 5 5 6 6 5 6 6 7 7 6 5 6 3 5 5 3 3 3 4 4 3 1 4 3 1 3 4 5 2 2 2 3 4
9 10 10 11 10 7 9 3 6 5 5 3 3 2 6 6 9 5 3 6 6 6 5 4 4 4 4 2 3 5 3 4 5 5 6 8 6 7 9 12 14 14 16 15 16 12 11 11 12 12 13 12 12 12 10 9 7 6 7 8 7 5 5 4 4 3 5 5 5 5 5 5 5 5 5 4 4 5 3 3 3 4 4 3 2 2 3 2 0 6 3 3 4 4 2 4 4
8 11 11 11 10 11 5 5 10 3 2 7 3 1 8 7 7 6 4 4 7 6 5 6 5 3 3 1 2 2 3 2 5 6 6 7 9 9 8 10 11 11 12 14 12 10 11 10 10 11 9 8 8 8 9 9 7 8 6 7 6 5 5 4 4 4 3 5 6 5 5 5 5 6 5 4 4 4 3 3 4 4 3 3 3 2 3 3 3 5 4 3 4 3 4 4 3
6 9 9 10 11 12 7 5 3 6 8 5 6 8 6 6 2 5 5 4 3 6 6 6 6 9 7 9 10 11 9 9 9 9 11 13 14 17 14 12 9 5 7 7 6 2 3 5 4 6 5 7 5 4 4 3 7 8 7 6 5 5 5 4 2 3 5 6 6 7 6 6 6 5 5 3 4 3 3 5 4 3 3 3 3 2 4 3 4 5 4 4 3 3 3 2 2
13 8 4 10 7 9 7 3 7 6 6 4 7 11 5 3 3 4 3 4 3 6 7 7 8 8 8 7 9 10 10 7 5 5 7 8 7 8 11 13 11 12 10 10 10 10 11 8 11 11 10 4 5 7 6 2 0 4 4 5 5 4 3 2 3 4 6 7 7 7 6 4 5 4 4 3 5 4 4 4 3 3 2 3 2 2 3 3 4 3 3 5 3 3 3 2 3
16 11 11 8 8 6 6 6 7 5 6 5 5 9 2 4 5 5 2 5 5 8 7 4 7 9 9 7 8 9 10 9 10 9 9 8 8 6 9 9 10 11 9 8 6 5 8 9 7 7 8 5 7 4 3 3 4 2 3 3 3 2 2 3 4 5 6 7 8 7 7 5 5 5 4 4 5 5 4 4 3 3 3 2 3 3 3 3 4 3 4 4 2 2 3 2 3
12 12 11 8 6 4 6 1 7 7 4 6 4 4 3 2 3 3 5 2 6 8 6 1 6 9 10 10 9 8 9 9 9 9 9 10 10 11 8 8 9 12 9 7 6 8 5 3 5 4 7 7 5 4 6 4 5 6 7 6 3 2 3 2 4 5 5 7 7 6 6 5 6 5 4 4 6 6 5 5 5 5 3 3 3 2 2 3 3 3 3 4 2 1 3 3 3
11 11 12 11 9 10 8 7 5 7 6 2 3 0 3 4 5 4 5 6 6 6 5 6 8 9 9 9 9 8 6 6 9 9 9 9 9 8 7 7 8 11 8 9 7 3 2 3 3 6 8 7 3 5 4 6 8 11 7 5 5 7 6 6 4 5 5 6 7 6 5 5 5 6 4 4 7 4 5 4 5 5 4 3 3 2 2 2 3 0 4 2 0 1 3 5 2
Wind_Direction
264 238 239 230 235 256 262 211 247 193 237 244 259 246 250 238 267 229 118 182 166 54 63 8 27 327 334 321 322 314 327 356 49 337 64 104 208 114 126 117 115 117 122 129 132 141 140 137 138 136 131 130 130 131 130 131 130 132 131 129 127 124 121 123 122 121 121 120 119 120 121 122 121 119 119 119 118 113 109 110 116 110 104 105 109 103 101 94 83 82 86 87 88 89 92 95 84
236 232 227 233 238 248 233 211 255 257 206 248 249 248 253 243 43 270 288 293 73 41 17 356 336 322 270 277 262 287 21 75 70 96 101 141 118 112 134 135 130 127 131 126 137 142 143 139 135 133 130 130 131 131 132 131 130 131 131 130 128 127 123 123 122 121 120 121 120 123 123 124 123 123 122 122 110 101 107 118 119 111 107 109 111 108 97 92 90 86 84 86 89 88 87 89 87
253 243 227 220 238 238 289 218 243 247 241 235 253 243 182 215 282 81 26 54 24 41 68 293 321 259 247 229 251 236 72 57 92 94 119 121 121 133 132 131 125 130 131 131 137 139 140 140 131 131 129 131 132 131 133 131 130 132 132 130 130 127 125 124 122 123 123 123 124 125 125 122 121 124 121 110 99 107 117 121 119 114 117 118 118 113 104 96 94 91 81 79 85 87 86 88 93
284 278 275 213 235 205 236 224 241 259 255 264 272 37 36 70 47 28 52 35 30 8 332 297 296 58 298 253 359 92 81 78 56 116 118 176 139 146 135 133 129 129 130 138 136 134 135 134 130 128 129 131 133 134 134 132 132 133 132 131 129 131 129 126 125 126 126 128 128 125 124 123 121 119 113 108 108 118 130 124 126 119 121 124 115 110 105 98 95 95 84 81 80 83 83 82 81
261 263 257 251 272 229 230 239 239 234 248 251 263 73 52 26 60 56 50 41 327 263 269 266 258 229 272 294 42 321 55 95 56 57 93 72 112 138 140 129 132 133 137 143 134 121 124 129 126 127 129 132 132 134 133 131 132 134 131 131 132 131 130 126 129 130 131 133 130 126 123 124 123 118 113 115 117 126 120 121 118 125 123 123 114 110 109 105 95 89 87 82 80 78 80 81 80
249 256 236 241 235 328 304 252 237 236 249 264 275 80 15 46 57 42 1 267 5 26 278 278 266 276 166 50 50 78 5 37 36 91 110 119 141 139 127 151 137 136 140 134 122 112 130 123 125 126 129 130 131 132 133 132 132 133 133 134 134 131 130 130 133 134 137 139 136 130 127 126 127 123 121 121 123 126 118 116 120 124 132 133 127 121 118 110 96 93 90 84 75 71 70 73 78
232 229 214 215 252 256 256 252 247 243 238 241 262 284 80 71 54 342 294 354 216 303 187 236 250 239 225 124 74 56 43 41 72 99 107 126 128 129 139 131 132 125 120 100 110 116 120 118 121 124 126 128 130 130 131 132 133 136 138 137 135 135 135 137 138 139 142 143 143 136 134 137 138 133 127 128 130 130 121 111 118 130 135 130 121 120 120 108 100 88 72 69 67 67 71 80 81
248 276 209 208 237 211 230 246 259 263 256 226 281 32 57 49 250 176 333 309 102 276 139 265 274 292 51 145 103 53 70 65 96 85 98 131 128 141 136 119 128 121 99 108 103 110 119 112 116 120 123 128 131 133 136 137 138 141 141 139 138 138 139 140 141 142 142 145 144 141 139 140 137 135 133 136 137 135 121 113 117 119 118 118 116 126 110 95 86 78 67 64 64 69 74 81 88
237 235 272 259 250 241 248 242 250 245 270 216 248 47 100 183 41 269 273 258 284 274 256 222 204 233 235 100 94 86 62 55 72 92 113 116 129 133 112 121 124 116 98 96 103 110 121 107 114 118 123 128 135 136 141 139 140 142 141 137 139 138 140 141 143 142 144 144 146 141 136 142 138 136 140 141 140 137 126 122 120 119 116 119 133 116 102 94 82 71 68 63 62 72 76 82 92
235 233 213 232 243 250 245 244 237 243 241 99 80 88 0 29 316 22 296 279 262 338 321 275 336 270 73 112 103 68 77 86 106 107 110 117 97 61 42 47 67 85 86 93 102 108 115 114 114 118 125 131 135 137 137 136 138 138 135 134 137 138 141 143 142 143 142 143 144 138 141 143 131 132 138 139 139 138 130 129 125 123 125 128 130 108 98 86 83 79 70 68 71 78 87 92 92
235 205 257 270 249 252 251 246 238 223 232 86 79 57 48 349 324 318 294 291 302 303 288 147 255 242 269 82 67 87 97 103 108 108 75 42 22 29 39 39 38 28 49 84 100 105 118 123 118 115 118 120 125 130 128 130 131 132 133 134 137 141 142 142 141 140 141 144 141 138 140 131 130 133 139 136 136 133 129 133 130 128 131 137 124 113 103 97 84 80 72 74 80 82 90 94 85
245 224 195 239 248 247 253 258 245 205 100 83 248 104 69 337 327 250 299 318 286 228 234 124 290 212 124 85 87 78 89 84 84 69 52 72 68 79 105 101 106 101 100 69 93 109 121 120 121 114 99 105 115 121 126 125 126 130 134 139 143 145 143 133 126 131 139 138 139 141 142 137 135 130 129 132 133 127 128 136 138 138 136 133 124 116 105 102 94 82 78 78 85 92 96 100 93
250 252 224 242 256 256 264 271 295 330 12 83 103 73 134 212 302 346 274 322 300 295 279 205 309 23 81 97 136 108 101 84 73 91 110 87 91 106 65 62 86 104 123 139 121 117 114 122 116 116 105 108 94 101 117 117 120 125 136 144 148 142 133 125 129 136 143 131 136 146 143 142 136 130 127 130 134 133 132 135 141 140 139 133 127 118 112 106 97 91 88 91 97 95 97 97 104
239 242 268 257 259 266 276 283 289 253 265 97 99 135 58 304 42 321 295 267 262 250 64 23 343 92 97 114 133 139 105 100 110 107 87 91 87 80 96 109 99 86 80 136 128 131 139 122 107 92 103 106 108 113 99 114 122 132 136 144 139 133 136 134 135 143 144 140 134 142 144 144 137 131 130 130 134 133 130 142 144 142 139 136 127 125 119 109 103 95 96 106 115 116 111 117 119
243 245 263 277 281 282 270 262 264 258 176 86 79 20 43 101 91 264 272 279 266 348 5 17 3 8 73 254 150 135 133 127 114 100 103 105 101 103 105 112 119 115 116 126 126 125 126 121 112 118 112 82 133 132 135 129 133 134 133 133 137 138 136 141 147 152 148 142 141 144 149 148 139 137 135 136 134 131 138 143 144 141 140 137 135 135 123 116 108 106 106 113 123 126 125 131 158
249 267 262 271 255 256 245 248 247 290 79 83 154 84 246 266 53 334 334 7 309 317 319 76 46 69 52 59 74 128 128 113 104 108 102 97 101 105 110 106 107 108 102 90 91 121 133 130 132 150 137 169 167 146 144 142 138 129 133 136 141 140 142 143 150 152 148 147 151 150 151 148 141 142 141 140 140 140 144 145 145 144 141 137 145 136 131 121 115 113 116 124 133 135 135 140 184
237 257 269 246 256 244 259 253 225 225 113 84 353 57 10 310 82 261 28 241 246 245 159 76 89 60 56 60 65 114 118 105 110 112 110 113 118 112 108 110 118 112 102 104 117 102 128 134 141 143 156 168 144 137 132 135 135 139 143 140 143 143 143 147 149 149 151 156 158 155 150 149 149 145 150 153 146 147 152 139 148 147 146 147 146 138 133 125 118 121 128 127 135 140 140 148 188
231 227 245 249 249 244 275 40 15 33 44 54 51 49 331 245 35 316 295 233 232 285 98 102 87 89 90 98 117 123 118 113 127 127 127 132 132 127 130 127 130 130 120 113 113 128 146 148 154 155 156 150 142 147 147 144 147 147 145 148 147 148 150 151 154 155 159 159 159 154 163 161 157 157 164 150 158 153 149 149 148 148 149 147 147 137 128 124 120 133 138 148 148 155 149 170 176
229 234 233 244 227 285 341 13 32 320 49 16 54 208 60 286 12 16 303 331 318 86 94 95 98 100 103 111 121 123 127 131 139 139 141 139 143 146 143 142 132 136 130 118 124 131 136 147 166 159 161 156 147 143 138 140 145 145 155 160 157 156 162 162 158 161 160 158 162 168 170 162 166 162 152 159 152 158 148 152 154 151 155 148 139 132 128 127 132 145 161 159 167 176 190 203 165
226 247 231 237 258 343 325 283 59 302 46 324 13 24 48 307 263 43 279 313 254 178 129 119 121 131 135 124 123 124 136 147 142 149 149 148 147 152 142 140 144 141 136 131 134 137 144 151 163 168 156 145 134 134 133 142 147 157 157 166 167 169 166 163 161 164 166 162 164 153 166 165 160 112 164 161 149 144 140 151 157 158 156 157 145 137 136 140 150 178 169 159 185 200 226 198 174
180 233 244 240 106 337 39 2 5 350 338 331 332 300 343 267 8 350 302 271 262 76 119 131 124 130 141 136 139 148 158 154 167 158 158 157 152 147 140 147 150 141 136 131 136 146 149 149 157 160 156 146 139 138 136 141 155 157 166 169 175 152 188 169 166 165 181 164 157 158 150 171 111 124 127 142 146 148 154 155 158 167 173 167 174 173 176 154 191 197 186 192 226 224 233 194 185
238 225 240 262 287 333 310 88 31 315 321 296 277 281 277 3 290 249 260 268 301 62 106 116 140 142 150 151 141 144 157 174 164 170 169 173 164 156 139 147 133 136 138 146 146 150 155 157 158 146 143 149 147 139 136 143 145 162 166 160 167 145 203 161 144 129 154 151 145 178 149 129 126 131 158 153 158 162 161 165 172 180 186 175 185 184 193 149 194 207 191 197 225 239 251 217 143
241 243 258 262 272 302 45 14 13 41 300 290 299 301 304 347 292 310 281 274 309 58 359 137 131 137 142 143 135 158 169 178 176 176 171 171 163 159 142 152 151 145 154 139 139 146 153 154 116 122 143 149 142 141 141 146 151 127 111 161 135 169 167 131 93 127 138 158 145 134 124 133 138 175 160 178 160 172 170 180 184 183 190 175 177 198 186 162 200 205 177 201 211 226 243 16 273
242 254 242 237 242 232 257 279 334 290 283 258 254 281 288 280 275 254 269 318 319 60 15 81 97 104 127 138 152 172 183 184 187 174 164 177 156 164 145 150 144 139 155 137 138 143 155 148 108 130 156 148 151 153 141 139 126 116 73 47 62 12 347 59 243 173 151 155 140 115 132 184 156 183 166 170 168 181 195 195 195 184 187 175 178 208 169 166 213 210 202 192 182 120 202 236 241
229 240 261 279 320 305 304 306 277 264 267 285 275 260 253 254 252 277 277 271 308 82 153 108 107 110 125 138 158 171 187 188 190 176 179 164 168 163 146 132 143 136 134 141 139 144 153 153 137 140 157 160 160 150 147 144 128 119 123 135 143 166 156 150 209 161 163 143 92 100 176 282 184 181 176 177 183 197 197 209 211 181 175 155 180 210 163 171 203 202 102 94 189 201 228 226 212
228 253 245 251 251 243 236 248 256 263 263 258 264 252 257 255 256 255 270 251 209 102 358 106 115 119 111 118 123 171 190 178 184 185 181 167 135 132 138 135 134 134 140 140 143 147 155 155 148 149 161 175 165 157 144 133 143 135 157 147 132 167 166 148 144 138 134 106 117 49 3 3 321 227 184 190 201 192 196 180 232 95 96 137 118 105 214 166 127 143 155 193 202 210 318 340 303
1 237 236 250 259 264 242 241 248 254 257 256 251 253 254 240 228 251 222 248 91 125 101 99 98 91 106 104 111 245 204 183 192 196 166 174 129 150 165 168 143 144 136 149 142 140 141 160 162 163 172 171 167 150 149 156 157 152 167 122 163 172 145 131 121 128 106 116 112 62 63 26 333 314 211 254 60 199 164 205 177 148 130 120 128 157 202 143 166 146 162 199 12 179 205 238 40
236 244 282 271 271 262 267 260 250 250 249 239 246 268 264 261 249 248 251 207 154 209 129 119 143 149 110 84 200 212 215 238 191 201 194 137 155 157 176 185 151 137 150 137 129 142 154 159 168 165 152 160 194 161 160 159 157 156 140 148 168 150 134 124 125 123 120 131 92 70 29 275 10 334 331 24 41 273 205 118 254 155 130 138 157 115 215 107 123 119 75 49 348 346 20 38 72
260 274 263 258 253 255 245 246 238 228 250 248 252 258 249 235 234 236 257 145 142 204 118 195 107 134 122 195 217 198 196 220 224 213 191 192 152 141 159 142 130 135 138 128 123 146 157 152 158 168 165 176 200 163 154 153 148 140 145 148 160 137 133 129 132 126 116 130 106 130 216 132 18 284 212 136 280 290 0 42 350 43 68 103 90 121 140 181 100 28 125 140 212 219 74 57 81
256 258 258 266 261 249 232 225 229 227 231 242 174 250 244 230 227 233 244 187 182 196 142 137 125 144 148 168 192 181 194 211 204 192 148 144 127 130 149 144 140 143 135 128 135 132 127 131 158 167 150 163 178 158 149 146 136 133 156 153 138 131 123 111 111 117 121 123 120 184 208 130 195 244 32 60 87 30 344 353 247 325 47 54 49 143 158 104 130 188 195 187 204 133 69 121 100
243 234 234 254 260 252 226 207 195 218 216 190 135 263 272 266 218 220 232 195 173 194 144 127 171 158 157 180 192 194 187 207 191 145 165 118 104 133 127 130 146 130 131 134 136 142 144 136 151 165 149 144 154 158 154 130 132 131 141 138 142 134 121 100 118 110 124 139 143 167 165 111 80 57 44 70 94 105 126 84 324 291 72 93 123 253 201 165 175 213 169 181 126 94 69 75 113
228 243 228 227 244 255 238 176 173 227 172 191 204 245 260 264 265 204 213 163 172 221 149 147 156 158 159 181 191 205 194 199 144 123 96 109 121 124 133 152 154 134 135 136 134 128 139 149 142 128 151 150 162 164 138 126 126 127 121 122 126 136 100 95 190 114 123 124 138 146 125 109 108 87 77 65 113 129 126 144 172 236 284 35 39 1 311 186 178 12 73 115 235 152 141 56 107
212 234 242 229 219 243 120 168 170 219 156 185 217 257 249 256 355 165 130 162 183 210 148 140 144 153 150 195 204 195 189 189 146 146 131 130 130 128 139 137 155 143 133 135 135 140 156 160 146 158 160 165 166 158 144 133 129 134 130 120 194 161 121 145 204 121 114 157 165 131 122 112 128 126 117 79 60 113 125 343 22 37 5 42 353 311 280 60 183 126 182 192 106 72 78 107 145
213 202 243 255 234 191 227 153 200 198 206 184 199 237 264 289 243 123 158 193 201 212 141 161 148 156 110 119 274 217 198 167 163 128 143 149 123 130 129 134 140 132 133 139 141 145 152 153 153 161 155 164 170 150 145 141 142 141 137 163 179 198 122 139 183 144 156 162 146 126 150 132 140 143 125 133 114 133 104 135 68 47 19 38 27 308 6 297 87 92 101 74 75 75 83 133 149
212 197 221 245 266 275 127 169 163 243 152 247 234 224 271 263 245 185 191 190 246 216 214 149 152 118 106 28 355 282 209 171 140 150 167 114 106 118 119 124 132 130 139 144 140 144 133 123 117 153 156 166 159 152 140 141 134 137 139 158 147 93 115 136 182 155 138 145 139 144 150 145 162 124 191 151 167 167 119 69 108 79 44 61 190 4 312 288 120 86 48 92 95 105 107 150 146
210 209 201 221 266 216 250 116 143 174 176 197 238 261 232 256 245 205 172 203 200 231 217 133 125 125 128 149 184 221 228 165 171 143 185 142 127 134 129 129 132 143 134 123 123 134 125 123 125 133 148 155 141 121 143 148 156 172 169 177 188 156 106 138 142 155 125 133 146 150 156 162 147 148 179 164 200 134 102 143 140 135 195 87 46 34 284 291 127 138 148 173 117 94 67 91 84
303 328 300 241 214 242 214 163 110 116 306 266 283 258 254 268 261 251 267 162 191 202 192 149 144 156 150 129 161 246 184 111 42 106 57 26 131 135 139 133 140 145 140 141 148 150 145 145 146 136 122 166 165 173 181 177 177 175 175 198 193 130 79 114 143 172 154 149 158 157 160 158 146 169 179 186 170 138 134 172 105 135 71 114 96 195 261 239 261 118 177 79 143 134 137 112 89
299 295 272 287 267 282 293 162 147 143 153 252 254 257 270 268 274 281 275 254 185 178 204 162 165 172 159 149 173 206 160 116 110 70 48 47 48 36 9 354 348 146 135 128 162 148 143 145 141 140 160 189 181 191 182 185 176 184 191 209 165 125 144 142 162 161 167 159 162 148 150 152 156 169 183 164 169 162 148 148 124 157 205 119 79 248 233 247 185 165 159 115 98 130 105 101 118
270 276 259 261 265 280 287 265 261 123 134 212 253 276 265 251 247 248 256 271 239 171 194 229 206 172 172 165 182 181 168 158 138 83 35 129 128 120 113 59 305 278 123 142 143 154 142 139 143 153 168 176 187 184 175 176 171 155 109 331 84 79 164 164 131 144 145 143 134 124 117 112 183 177 173 147 154 160 141 148 161 179 195 154 127 237 219 176 192 167 163 157 139 88 101 114 123
232 239 244 250 258 258 219 220 151 196 211 260 256 263 256 252 246 246 240 245 265 237 201 215 232 215 189 163 159 162 167 160 154 156 178 270 337 117 123 124 321 332 346 129 162 155 152 154 165 170 169 174 177 174 170 161 139 125 103 238 80 114 122 95 118 135 117 114 137 145 143 182 215 207 172 148 145 161 173 191 183 188 197 172 185 210 192 151 133 234 143 136 143 133 124 134 113
224 248 248 243 246 244 269 286 261 350 309 46 296 278 272 275 273 252 236 227 252 264 225 202 225 229 231 160 162 177 173 157 146 155 169 188 189 159 133 140 113 110 266 207 177 171 171 169 167 169 165 166 166 161 139 140 143 145 144 128 127 117 122 145 125 120 119 118 130 147 163 187 205 201 154 136 156 173 183 192 191 194 193 176 212 188 149 160 180 191 179 148 128 106 88 138 122
232 219 240 257 260 271 261 275 264 169 179 198 214 248 251 236 240 251 256 231 230 252 248 223 234 231 231 187 170 172 157 149 161 172 179 190 181 145 132 145 137 173 242 238 216 177 164 169 167 156 158 157 165 170 153 158 163 153 152 149 143 144 162 174 137 147 157 158 149 143 164 177 171 132 157 159 176 182 193 200 191 201 219 187 154 167 165 184 217 163 159 150 107 105 123 94 130
246 222 214 237 257 272 276 273 290 271 283 267 211 233 260 246 244 227 223 239 242 233 235 216 230 252 249 192 177 140 160 149 169 172 177 180 172 146 122 152 167 178 206 231 280 196 176 171 182 172 160 160 171 156 147 149 152 152 149 143 133 144 154 171 132 137 138 136 128 141 126 109 154 164 165 203 182 188 192 203 214 184 220 159 173 181 181 178 182 132 143 93 111 128 138 115 149
237 253 238 210 219 231 245 266 279 287 298 286 287 290 287 267 246 282 271 228 222 229 225 203 211 245 252 195 165 153 169 153 163 167 174 176 169 165 150 167 194 189 182 161 184 214 179 186 190 180 159 169 184 154 153 160 160 138 130 126 122 135 155 148 135 127 121 130 124 101 102 130 184 170 185 210 201 192 191 207 224 188 175 162 167 170 169 136 88 121 89 92 97 97 110 138 138
239 232 242 264 266 259 238 243 254 254 265 260 250 241 248 255 269 286 289 288 255 248 239 193 186 236 255 174 174 164 169 155 152 162 162 162 165 165 145 163 201 206 123 157 190 210 211 199 189 156 150 163 183 154 161 162 155 151 158 138 144 148 140 131 129 122 115 117 110 107 128 158 167 209 193 201 219 189 163 208 200 156 154 160 145 133 138 124 120 112 115 106 119 120 105 129 150
230 257 331 310 286 278 273 264 255 251 237 250 248 255 264 258 245 235 265 269 240 251 274 263 215 227 235 121 162 144 120 139 161 159 154 150 154 150 130 152 190 201 149 196 218 203 218 203 189 162 146 158 164 160 176 167 170 163 161 151 148 146 144 133 137 137 130 151 150 142 135 118 306 235 194 194 189 176 171 175 163 158 156 153 157 123 95 84 74 137 116 136 144 139 152 175 175
231 237 243 210 227 254 258 258 274 267 251 249 245 251 260 275 239 256 191 107 9 278 241 357 56 84 34 73 146 122 142 152 189 155 144 150 145 139 145 166 183 182 147 146 256 210 212 201 190 177 163 152 164 173 178 181 173 161 146 152 157 146 145 139 138 144 143 147 134 158 142 112 256 237 192 166 166 165 163 160 129 149 154 164 128 133 138 152 145 117 115 124 160 149 156 172 144
225 226 242 284 217 218 232 242 221 244 255 257 254 241 235 256 247 205 80 70 65 7 63 48 43 29 6 3 136 138 170 170 178 143 149 150 148 142 148 165 180 163 153 187 221 210 200 189 187 179 171 156 170 174 180 175 175 169 157 162 157 150 148 151 152 152 161 155 162 169 155 165 204 202 159 150 153 152 138 147 172 131 163 149 133 166 171 153 151 145 152 149 171 170 186 163 157
206 223 213 226 245 229 230 209 227 227 247 242 251 255 242 239 337 97 38 51 70 26 39 79 57 110 30 302 159 185 120 147 146 150 171 174 170 152 159 167 181 161 181 214 215 205 188 188 186 179 174 167 172 173 173 172 174 169 161 155 150 158 156 156 158 157 162 157 170 171 170 184 174 154 164 147 142 149 132 127 134 128 96 82 132 131 22 72 121 147 141 160 153 174 194 158 147
207 211 212 214 230 236 232 223 231 254 244 246 253 257 251 87 75 72 121 67 43 54 48 46 69 122 228 200 123 116 76 77 97 169 179 187 183 181 165 170 184 181 194 210 212 198 184 187 183 180 172 171 170 167 171 172 174 163 161 147 150 154 158 151 155 155 153 161 174 169 163 153 153 154 166 150 172 158 123 121 100 106 121 85 63 55 106 84 109 128 128 154 115 165 157 148 129
205 215 222 220 227 236 233 228 243 240 271 332 279 237 250 221 78 19 66 57 47 44 30 45 59 325 187 255 112 101 111 155 221 205 218 197 188 183 177 176 183 189 192 197 198 191 186 180 188 179 172 171 164 166 170 175 171 158 143 143 144 157 143 130 136 146 150 173 166 157 154 151 154 162 152 146 148 110 104 111 101 100 91 86 89 104 67 64 326 86 96 90 101 54 119 130 127
201 215 227 237 230 231 261 244 238 281 283 255 263 296 43 79 194 117 86 69 64 35 56 53 58 34 29 50 76 128 144 200 223 233 233 247 242 215 185 188 185 193 192 187 188 188 184 184 189 189 178 170 164 163 169 165 156 135 146 147 151 141 108 111 128 161 172 176 155 135 118 114 117 113 108 111 98 103 116 119 121 96 100 113 134 134 138 139 134 96 113 141 137 145 158 122 137
185 203 217 230 239 241 235 263 280 294 262 257 257 208 80 115 152 120 119 123 77 68 33 56 35 52 65 33 83 97 131 272 288 273 253 245 243 237 216 205 195 189 192 186 182 182 181 191 186 187 165 140 167 162 164 157 148 139 147 143 139 125 127 139 154 192 186 130 116 111 116 109 102 102 107 114 120 132 153 140 107 105 114 135 142 169 118 134 131 119 136 150 131 163 158 137 148
260 234 216 223 231 249 242 248 212 224 251 257 230 228 155 180 167 123 94 73 94 84 63 49 44 32 35 31 19 16 24 3 317 307 326 330 354 353 344 341 335 307 217 190 193 174 222 187 184 168 80 79 129 158 141 146 143 140 149 142 128 136 145 160 194 181 125 107 93 92 88 92 94 105 121 139 124 128 114 98 104 128 145 128 165 162 129 165 122 130 162 142 134 111 100 142 136
241 235 251 238 185 221 216 243 237 239 235 248 227 252 93 282 128 165 140 132 94 79 25 23 42 33 30 24 15 8 2 17 6 358 15 10 14 14 26 6 345 354 338 20 17 3 354 5 49 39 57 65 37 13 30 356 342 122 131 126 122 131 135 176 179 121 106 105 103 103 109 108 114 117 135 135 124 112 101 108 121 125 129 156 171 109 124 147 118 122 120 93 120 161 143 128 100
236 244 231 235 269 239 229 200 242 255 256 238 248 252 108 17 359 356 188 76 86 72 57 322 47 42 37 31 39 32 26 25 27 31 30 29 23 8 35 8 24 28 26 43 27 33 26 27 48 83 87 79 148 166 93 3 70 62 81 100 87 100 185 181 132 120 116 117 123 131 134 139 132 138 144 152 130 126 131 134 139 130 150 162 112 138 165 104 101 110 108 150 180 149 127 130 110
201 223 240 224 244 241 256 63 233 232 255 251 264 232 104 70 297 75 27 67 100 119 125 107 61 62 53 52 57 57 45 32 32 38 38 29 22 21 32 21 26 40 28 13 16 54 17 16 52 65 77 67 86 144 139 136 83 37 19 33 46 9 323 122 141 127 127 132 136 132 134 135 137 139 160 167 135 144 147 149 146 151 147 143 130 197 120 125 124 159 181 116 169 199 151 151 140
216 208 222 233 219 216 214 232 189 245 250 254 269 35 9 9 327 332 107 111 91 78 100 97 76 72 64 57 60 65 56 27 26 15 32 27 23 39 33 29 34 56 23 7 29 85 59 71 91 82 94 89 47 3 69 99 95 120 101 47 2 2 357 288 144 153 153 148 134 137 142 146 147 140 180 165 135 146 149 155 149 150 144 145 158 146 118 160 133 120 74 91 212 263 99 92 195